This demonstration page uses our WeatherBlox Daily Observations layout. Learn more.

Left ArrowRight Arrow

39.01783, -85.05884

Hourly Observations for October 9, 2019

Temp ( °F °C ) Dew Point ( °F °C ) Humidity (%) Winds ( mph kmh ) Pressure ( in mb ) Visibility ( mi km ) Precip ( " mm )
12:52 am 00:52 Clear 57 13.9 44 6.7 62 62 ENE 7 11 30.13 1020 10 16 0.00 0.00
1:52 am 01:52 Clear 55 12.8 45 7.2 69 69 E 8 13 30.13 1020 10 16 0.00 0.00
2:52 am 02:52 Clear 54 12.2 45 7.2 72 72 Calm 30.12 1020 10 16 0.00 0.00
3:52 am 03:52 Clear 55 12.8 46 7.8 72 72 NE 3 6 30.11 1020 10 16 0.00 0.00
4:52 am 04:52 Clear 54 12.2 47 8.3 77 77 NE 7 11 30.12 1020 10 16 0.00 0.00
5:52 am 05:52 Clear 53 11.7 48 8.9 83 83 NNE 6 9 30.13 1020 10 16 0.00 0.00
6:52 am 06:52 Clear 52 11.1 46 7.8 80 80 NNE 6 9 30.14 1021 10 16 0.00 0.00
7:52 am 07:52 Sunny 50 10 45 7.2 83 83 NNE 6 9 30.16 1021 10 16 0.00 0.00
8:52 am 08:52 Sunny 54 12.2 47 8.3 77 77 NE 7 11 30.17 1022 10 16 0.00 0.00
9:52 am 09:52 Sunny 59 15 48 8.9 67 67 ENE 7 11 30.18 1022 10 16 0.00 0.00
10:52 am 10:52 Sunny 64 17.8 50 10 60 60 ENE 12 19 30.18 1022 10 16 0.00 0.00
11:52 am 11:52 Sunny 67 19.4 51 10.6 57 57 NE 12 19 30.16 1022 10 16 0.00 0.00
12:52 pm 12:52 Mostly Sunny 70 21.1 51 10.6 51 51 NE 12 19 30.15 1021 10 16 0.00 0.00
1:52 pm 13:52 Mostly Sunny 72 22.2 52 11.1 50 50 ENE 10 17 30.12 1020 10 16 0.00 0.00
2:52 pm 14:52 Mostly Sunny 72 22.2 54 12.2 53 53 VRB 5 7 30.10 1019 10 16 0.00 0.00
3:52 pm 15:52 Mostly Sunny 73 22.8 53 11.7 50 50 ESE 6 9 30.09 1019 10 16 0.00 0.00
4:52 pm 16:52 Mostly Sunny 74 23.3 53 11.7 48 48 Calm 30.07 1018 10 16 0.00 0.00
5:52 pm 17:52 Mostly Sunny 73 22.8 54 12.2 51 51 SSE 8 13 30.08 1019 10 16 0.00 0.00
6:52 pm 18:52 Mostly Sunny 70 21.1 54 12.2 57 57 ESE 8 13 30.08 1019 10 16 0.00 0.00
7:52 pm 19:52 Clear 65 18.3 55 12.8 70 70 SSE 6 9 30.09 1019 10 16 0.00 0.00
8:52 pm 20:52 Clear 63 17.2 55 12.8 76 76 S 6 9 30.11 1020 10 16 0.00 0.00
9:52 pm 21:52 Clear 62 16.7 56 13.3 80 80 S 3 6 30.12 1020 10 16 0.00 0.00
10:52 pm 22:52 Clear 61 16.1 56 13.3 84 84 S 3 6 30.12 1020 10 16 0.00 0.00
11:52 pm 23:52 Clear 59 15 55 12.8 87 87 Calm 30.12 1020 10 16 0.00 0.00

Powered by AerisWeather